Temperature
17 18 18 18 18 18 18 18 18 18 18 18 18 18 18 18 18 18 18 18 18 18 18 18 18 18 18 18 18 18 18 18 18 18 18 18 18 18 18 18 18 18 18
18 18 18 18 18 18 18 18 18 18 18 18 18 18 17 17 17 17 18 17 17 18 18 18 18 18 18 18 18 18 18 18 18 18 18 18 18 18 18 18 18 18 18
18 18 18 18 18 18 18 18 17 17 17 17 17 17 17 17 17 17 17 17 17 17 17 17 17 18 18 18 18 18 18 18 17 18 18 18 18 18 18 18 18 18 18
18 18 17 17 17 17 17 17 17 17 17 17 17 17 17 17 17 17 17 17 17 17 17 17 17 17 17 17 17 18 18 17 17 17 17 18 18 18 18 18 18 18 18
18 18 17 17 17 17 17 17 17 17 17 17 17 17 17 17 16 16 16 16 16 16 17 17 17 17 17 17 17 17 17 17 17 17 17 17 18 18 18 18 18 18 18
18 18 17 17 17 17 17 17 17 17 17 17 17 16 16 16 16 16 16 16 16 16 16 17 17 17 17 17 17 17 17 17 17 17 17 17 17 17 18 18 18 18 18
18 17 17 17 17 17 17 17 17 17 16 16 16 16 16 16 16 16 16 16 16 16 16 16 17 17 17 17 17 17 17 17 17 17 17 17 17 17 17 18 18 18 18
18 17 17 17 17 17 17 17 16 16 16 16 16 16 16 16 16 16 16 16 16 16 16 16 16 16 16 16 17 17 17 17 17 17 17 17 17 17 17 18 18 18 18
18 17 17 17 17 17 17 17 16 16 16 16 16 16 16 16 15 15 16 16 15 16 16 16 16 16 16 16 16 16 17 17 17 17 17 17 17 17 17 17 18 18 18
18 18 17 17 17 17 17 16 16 16 16 16 16 16 16 15 15 15 15 15 15 15 16 16 16 16 16 16 16 16 16 17 17 17 17 17 17 17 17 17 18 18 18
18 18 18 17 17 17 17 16 16 16 16 16 16 16 16 15 15 15 15 15 15 15 16 16 16 16 16 16 16 16 17 17 17 17 17 17 17 17 17 17 17 17 17
18 18 18 17 17 17 17 16 16 16 16 16 16 16 16 16 15 15 15 15 15 15 16 16 16 16 16 16 16 16 17 17 17 17 17 17 17 17 17 17 17 17 17
18 18 18 18 17 17 17 17 16 16 16 16 16 16 16 16 16 16 15 15 15 15 16 16 16 16 16 16 16 16 16 17 17 17 16 16 16 17 17 17 17 17 17
18 18 18 18 17 17 17 17 17 16 16 16 16 16 16 16 16 16 15 15 15 16 16 16 16 16 16 16 16 16 16 16 16 16 16 16 16 17 17 17 17 17 17
19 18 18 18 18 17 17 17 17 16 16 16 16 16 16 16 16 16 15 15 16 16 16 16 16 16 16 16 16 16 16 16 16 16 16 16 16 16 16 17 17 17 17
19 19 18 18 18 18 17 17 17 17 16 16 16 16 16 16 16 15 15 15 15 15 16 16 16 16 16 16 16 16 16 16 16 16 16 16 16 16 16 16 17 17 17
19 19 18 18 18 18 17 17 17 17 16 16 16 16 16 16 15 15 15 15 15 15 16 16 16 16 16 16 16 16 16 16 16 16 16 16 16 16 16 16 16 16 17
19 19 18 18 18 18 17 17 17 17 16 16 16 16 16 16 15 15 15 15 15 15 16 16 16 16 16 16 16 16 16 16 16 16 16 16 16 16 16 16 16 16 16
19 19 18 18 18 18 17 17 17 16 16 16 16 16 15 15 15 15 15 15 15 15 15 16 16 16 16 16 16 16 16 16 16 16 16 16 16 16 16 16 16 16 16
19 19 19 18 18 18 17 17 17 16 16 16 16 15 15 15 15 15 15 15 15 15 15 16 16 16 16 16 16 15 15 15 15 16 15 15 16 16 16 16 16 16 16
19 19 19 18 18 18 17 17 17 16 16 16 16 15 15 15 15 15 15 15 15 15 15 15 16 16 16 16 16 15 15 15 15 15 15 15 15 15 16 16 16 16 16
20 19 19 19 18 18 18 17 17 16 16 16 16 15 15 15 15 15 15 15 15 15 15 15 16 16 16 16 16 16 15 15 15 15 15 15 15 15 15 15 15 16 16
20 19 19 19 18 18 18 17 17 16 16 16 16 15 15 15 15 15 15 15 15 15 15 15 15 15 15 15 16 16 15 15 15 15 15 15 15 15 15 15 15 15 16
20 19 19 19 18 18 18 17 17 17 16 16 16 15 15 15 15 15 15 15 15 15 15 15 15 15 15 15 15 15 15 15 15 15 15 15 15 15 15 15 15 15 15
20 20 19 19 19 18 18 17 17 17 16 16 16 16 15 15 15 15 15 15 15 15 15 15 15 15 15 15 15 15 15 15 15 15 14 14 14 14 14 15 15 15 15
20 20 19 19 19 18 18 17 17 17 16 16 16 16 16 15 15 15 15 15 15 15 15 15 15 15 15 15 15 15 15 15 15 15 14 14 14 14 14 14 14 14 15
Wind_Speed
1 4 9 11 11 12 12 12 12 13 13 13 14 13 13 13 13 13 13 13 12 12 12 11 11 11 10 10 10 9 9 9 9 8 8 8 9 9 9 9 8 7 7
5 7 10 11 12 12 12 12 13 13 13 13 13 13 12 13 13 13 12 12 12 11 11 10 10 9 9 9 9 8 8 7 7 7 7 7 8 8 9 9 9 7 8
7 9 10 11 12 12 12 12 13 13 13 12 12 12 12 12 11 11 11 11 10 10 10 9 9 8 8 8 8 7 7 6 6 6 6 5 7 8 9 9 9 9 9
9 9 11 12 12 12 12 13 13 13 13 13 12 12 11 11 11 10 10 10 9 9 8 8 8 7 7 7 7 6 6 6 6 6 5 4 5 8 8 8 8 9 9
9 10 12 13 13 13 13 13 13 12 12 12 11 11 11 10 10 10 9 9 8 7 7 7 6 6 5 6 6 6 6 6 6 6 5 5 5 7 8 8 8 8 8
8 10 12 14 13 13 13 12 12 12 11 11 10 10 10 10 9 9 8 7 7 6 6 6 5 5 4 5 5 6 6 5 5 5 4 4 5 7 8 8 7 7 8
7 9 12 13 13 13 13 12 11 11 10 10 9 9 9 8 8 7 6 6 5 5 4 4 4 4 4 4 5 5 6 5 4 3 3 4 5 7 7 7 7 7 7
8 9 11 13 13 13 12 11 10 10 9 8 8 7 7 6 6 5 4 4 3 3 3 2 2 3 3 4 4 5 5 5 4 4 3 3 5 6 7 7 7 7 7
8 8 8 10 11 12 11 10 9 8 7 7 6 5 5 4 4 3 2 2 2 2 2 2 2 3 4 4 4 4 4 4 3 1 2 3 5 7 7 6 6 6 6
6 6 7 7 8 8 8 8 7 6 5 4 3 3 2 2 2 2 1 0 0 1 2 3 3 4 5 5 4 4 3 3 3 2 2 4 6 7 6 6 6 6 6
7 5 5 6 7 7 6 6 5 4 2 1 1 2 1 1 2 3 3 2 2 2 3 4 5 5 5 5 5 3 3 3 3 2 3 5 7 7 6 6 6 6 6
7 7 6 6 7 7 6 5 3 1 0 1 1 1 1 2 3 4 4 4 4 5 5 6 5 5 5 4 4 3 2 3 3 2 4 7 7 7 6 6 5 6 6
7 7 7 6 6 6 4 4 3 1 0 1 1 1 2 2 1 1 2 3 5 5 5 6 6 5 3 3 3 3 2 3 3 3 4 6 7 7 6 6 5 6 6
6 6 7 6 5 5 6 5 4 2 1 2 3 3 4 3 2 2 1 2 3 3 3 4 4 4 4 3 3 3 4 4 4 4 4 6 7 6 6 6 5 6 6
6 6 6 6 6 5 5 4 4 3 3 4 6 6 6 4 2 2 2 3 3 4 3 3 3 3 3 4 4 4 4 5 5 4 4 6 6 5 5 5 5 6 6
7 6 6 6 6 6 4 4 4 4 6 8 8 8 8 6 4 3 3 4 4 4 4 4 3 3 3 3 4 4 5 4 4 4 4 4 5 5 5 5 5 6 6
8 7 7 7 7 7 6 5 6 6 8 7 7 10 10 9 7 5 3 3 4 6 6 5 5 4 4 4 4 3 4 4 4 4 4 4 4 4 5 5 5 5 5
8 7 8 8 8 7 6 6 6 7 8 7 8 9 10 10 9 7 4 3 5 6 5 3 4 4 4 4 3 3 3 3 4 4 4 4 4 4 4 5 5 5 5
8 8 8 8 8 7 6 6 7 7 7 7 8 8 8 9 10 7 4 4 6 5 4 3 4 3 3 3 3 4 4 3 3 4 4 4 4 4 4 5 5 6 6
8 8 8 7 7 7 6 6 5 5 4 6 6 7 8 8 9 8 5 5 6 4 4 4 4 4 3 3 4 5 4 4 4 4 3 4 4 5 5 5 5 6 7
8 8 7 7 6 6 5 4 4 3 2 3 4 6 8 8 8 7 4 4 4 4 4 4 3 5 5 3 4 4 5 5 6 5 4 4 4 4 5 5 5 5 5
8 8 8 8 7 6 4 4 3 3 2 2 2 5 7 8 7 6 5 3 4 4 6 5 4 3 4 4 3 4 4 5 5 6 5 4 4 5 4 5 6 6 6
9 9 9 8 8 7 6 5 5 4 4 3 3 3 4 7 8 7 6 4 4 4 4 4 4 4 3 4 3 4 4 1 2 4 5 5 5 4 4 5 6 6 7
9 8 9 8 8 7 7 7 7 5 3 2 1 1 2 6 7 7 7 6 5 4 4 4 4 3 4 3 3 3 2 3 3 2 4 4 5 5 5 5 5 7 7
9 9 9 9 8 7 7 8 7 5 3 2 2 3 3 3 5 6 6 6 4 3 4 5 5 5 3 3 2 2 3 3 3 4 2 3 4 4 4 4 4 5 7
8 8 9 9 7 7 7 7 8 7 6 5 3 3 2 2 3 4 5 5 4 3 4 4 4 5 4 4 4 3 3 3 2 3 3 1 2 3 4 4 4 4 6
Wind_Direction
80 102 107 104 101 98 97 98 98 97 96 95 93 91 90 89 89 88 86 85 82 79 76 74 72 70 68 67 66 67 69 69 69 69 73 79 80 79 76 71 68 67 69
128 108 106 105 103 101 99 98 99 98 96 95 93 93 92 90 88 87 86 85 82 79 77 74 71 68 65 62 61 60 61 61 61 63 72 77 81 80 77 73 70 69 68
112 103 104 106 104 102 101 99 99 98 97 96 95 94 92 90 87 87 86 84 82 78 76 74 70 66 62 58 55 53 54 55 54 55 69 82 87 86 83 77 72 68 66
114 109 108 108 106 104 102 101 99 98 97 97 95 93 91 90 88 87 85 83 80 76 72 69 67 63 58 53 48 43 42 46 47 54 67 83 90 94 89 81 75 68 65
110 110 114 111 108 106 103 102 100 98 97 97 96 95 93 93 91 87 85 82 78 74 70 66 62 57 51 45 39 33 32 35 43 54 67 86 94 100 94 85 76 66 63
116 120 122 118 115 112 110 107 104 102 101 100 98 97 95 94 92 89 84 79 75 72 66 59 53 47 43 34 28 26 26 28 39 52 69 96 105 105 97 89 79 68 60
130 131 130 126 123 119 117 113 110 108 107 106 104 102 99 96 93 89 86 81 74 68 61 53 42 34 27 15 17 23 24 30 49 62 69 99 113 108 97 89 80 69 61
140 140 137 134 131 128 123 120 118 114 111 109 108 106 105 102 99 93 89 82 76 68 57 42 24 7 3 359 4 16 23 35 55 71 69 107 120 114 99 87 77 67 59
143 142 143 140 138 135 133 131 128 125 122 119 119 119 116 115 118 115 101 81 76 66 35 10 356 343 343 343 348 2 17 36 62 77 102 116 119 114 101 88 78 68 60
151 153 155 153 148 144 144 144 141 141 144 143 148 156 158 165 160 166 189 202 47 12 346 332 325 321 321 325 332 348 17 41 71 87 120 127 122 112 100 90 81 72 61
165 174 171 170 171 165 163 164 157 156 177 189 232 214 203 240 243 251 255 258 283 307 319 319 315 312 317 327 337 356 20 69 94 113 132 129 122 113 101 89 81 72 61
178 181 180 181 183 183 180 176 177 172 269 266 282 281 207 213 239 246 261 278 301 313 321 327 326 327 333 344 356 18 57 89 107 123 135 132 124 116 106 95 83 74 63
171 170 173 182 180 176 166 155 167 166 353 0 12 87 115 94 59 344 329 320 328 334 340 347 1 359 4 8 30 60 91 109 124 128 136 134 124 114 105 97 83 74 66
144 155 164 166 162 160 144 139 148 134 70 25 43 83 93 78 60 43 28 354 355 355 355 3 10 23 45 54 74 84 88 103 116 126 142 134 120 112 106 97 84 75 69
139 144 146 140 137 135 126 129 118 103 75 53 58 68 94 92 73 48 28 23 16 17 20 26 25 39 45 47 65 89 91 104 117 126 124 125 118 114 106 97 85 78 71
134 133 131 126 126 121 114 109 110 101 81 65 60 65 78 79 74 61 43 30 27 30 40 48 38 49 48 55 46 69 85 97 109 116 116 115 114 110 104 97 87 80 74
138 130 125 124 115 111 109 106 105 94 79 66 63 70 73 73 72 69 53 33 24 42 50 52 41 45 50 55 47 48 72 82 90 98 107 108 99 92 98 93 83 79 77
141 135 133 127 114 109 103 99 100 95 85 74 71 70 69 70 74 69 54 31 34 45 46 52 44 49 46 50 48 38 46 67 70 80 86 91 85 80 81 79 78 77 72
148 138 132 129 123 112 102 100 97 91 80 73 71 67 65 66 69 69 54 36 42 43 33 49 50 59 57 53 61 51 38 43 47 70 72 81 88 86 86 71 70 68 65
149 139 136 128 121 112 100 91 80 68 60 64 66 64 65 63 64 66 57 42 47 46 38 46 57 50 57 61 70 59 39 31 37 45 52 64 70 76 83 72 61 57 59
146 138 140 134 132 123 115 110 101 89 67 48 52 62 65 66 65 65 62 45 45 52 46 48 62 56 41 46 67 42 21 24 36 32 31 44 48 60 72 73 64 61 55
153 148 145 146 143 139 136 134 133 129 108 76 50 53 60 67 65 69 66 56 48 57 48 44 57 64 39 42 90 79 35 11 6 16 25 41 34 49 62 69 65 62 61
156 158 155 154 143 137 128 111 95 72 55 45 41 29 32 63 67 69 69 67 56 63 61 52 62 79 65 33 59 116 118 139 347 358 17 26 27 40 43 62 61 58 63
164 159 151 148 140 138 130 127 130 129 135 171 159 69 38 56 63 70 75 73 65 64 65 55 64 75 88 60 32 49 109 141 121 37 0 9 26 36 38 55 57 57 61
157 150 149 143 140 139 133 134 130 130 142 135 104 80 49 35 52 69 75 74 68 64 65 62 61 64 76 88 73 65 66 62 80 111 67 3 17 15 27 39 52 53 54
148 146 145 141 140 139 135 135 138 140 138 130 125 114 67 34 31 54 74 74 73 68 64 67 68 71 74 79 76 74 89 95 102 110 116 80 44 0 16 26 39 43 45
Height
1538 1538 1538 1538 1538 1538 1538 1538 1538 1538 1538 1538 1538 1539 1539 1539 1539 1539 1539 1539 1539 1539 1539 1539 1539 1539 1539 1539 1539 1539 1539 1539 1538 1538 1537 1537 1537 1537 1536 1536 1535 1534 1534
1538 1538 1538 1538 1538 1538 1538 1538 1538 1538 1538 1538 1539 1539 1539 1539 1539 1539 1539 1539 1539 1539 1539 1539 1539 1539 1539 1539 1539 1539 1539 1539 1539 1539 1538 1538 1538 1537 1537 1536 1536 1535 1534
1538 1538 1538 1538 1538 1539 1539 1539 1539 1539 1539 1539 1539 1539 1539 1539 1539 1539 1539 1540 1540 1539 1539 1539 1539 1539 1539 1539 1539 1539 1540 1540 1539 1539 1539 1539 1538 1538 1538 1537 1536 1536 1535
1539 1539 1539 1539 1539 1539 1539 1539 1539 1539 1539 1539 1539 1539 1539 1539 1539 1539 1539 1539 1539 1539 1539 1539 1539 1539 1539 1539 1539 1540 1540 1540 1540 1540 1540 1539 1539 1539 1539 1538 1537 1537 1536
1539 1539 1539 1540 1540 1540 1540 1540 1540 1540 1540 1540 1540 1540 1540 1540 1539 1539 1539 1539 1539 1539 1539 1539 1539 1539 1539 1539 1539 1540 1540 1540 1540 1540 1540 1540 1540 1540 1539 1539 1538 1537 1537
1540 1540 1540 1541 1541 1541 1540 1540 1540 1540 1540 1541 1541 1541 1540 1540 1540 1539 1539 1539 1539 1539 1539 1539 1539 1539 1539 1539 1539 1539 1540 1540 1540 1541 1541 1541 1541 1540 1540 1540 1539 1538 1538
1541 1542 1542 1542 1542 1542 1542 1542 1542 1541 1541 1542 1542 1541 1541 1541 1541 1540 1540 1539 1539 1539 1539 1539 1538 1539 1539 1539 1539 1539 1540 1540 1541 1541 1541 1541 1541 1541 1541 1540 1540 1539 1539
1543 1543 1543 1543 1543 1543 1543 1543 1543 1543 1543 1543 1543 1543 1542 1542 1541 1541 1540 1540 1539 1539 1539 1538 1538 1539 1539 1539 1539 1539 1540 1540 1541 1541 1542 1542 1542 1542 1542 1541 1540 1540 1539
1545 1545 1545 1545 1545 1545 1545 1545 1545 1545 1545 1544 1544 1544 1543 1543 1542 1542 1541 1541 1540 1539 1539 1539 1539 1539 1539 1539 1540 1540 1540 1541 1541 1542 1542 1542 1542 1542 1542 1542 1541 1540 1540
1546 1546 1547 1547 1547 1547 1547 1547 1547 1546 1546 1546 1546 1545 1545 1544 1544 1543 1543 1542 1541 1541 1540 1540 1540 1540 1540 1540 1540 1541 1541 1541 1542 1542 1543 1543 1543 1543 1543 1542 1542 1541 1540
1547 1548 1548 1548 1548 1548 1548 1548 1548 1548 1548 1547 1547 1546 1546 1545 1545 1544 1544 1543 1542 1542 1541 1541 1541 1540 1540 1541 1541 1541 1542 1542 1543 1543 1543 1543 1543 1543 1543 1543 1542 1542 1541
1548 1549 1549 1550 1550 1550 1550 1550 1550 1549 1549 1548 1548 1547 1547 1546 1546 1545 1545 1544 1543 1543 1542 1542 1541 1541 1541 1541 1542 1542 1542 1543 1543 1543 1544 1544 1544 1544 1544 1543 1543 1542 1542
1549 1549 1550 1551 1551 1551 1551 1551 1551 1551 1550 1549 1549 1548 1548 1547 1547 1546 1546 1545 1544 1544 1543 1543 1542 1542 1542 1542 1542 1543 1543 1543 1544 1544 1544 1545 1545 1545 1544 1544 1544 1543 1543
1550 1550 1551 1552 1552 1552 1552 1552 1552 1552 1551 1550 1550 1549 1549 1548 1548 1547 1546 1546 1545 1545 1544 1544 1543 1543 1543 1543 1543 1544 1544 1544 1545 1545 1545 1545 1545 1545 1545 1545 1544 1544 1544
1550 1551 1552 1553 1553 1554 1554 1554 1553 1553 1552 1551 1551 1550 1550 1549 1549 1548 1547 1547 1546 1545 1545 1544 1544 1544 1544 1544 1544 1545 1545 1545 1546 1546 1546 1546 1546 1546 1546 1546 1545 1545 1545
1551 1552 1553 1554 1555 1555 1555 1555 1555 1554 1554 1553 1552 1551 1551 1550 1549 1549 1548 1547 1547 1546 1546 1545 1545 1545 1545 1545 1545 1546 1546 1547 1547 1547 1547 1547 1547 1547 1547 1547 1547 1546 1546
1552 1553 1554 1555 1556 1556 1556 1556 1556 1555 1555 1554 1553 1553 1552 1551 1550 1550 1549 1548 1547 1547 1546 1546 1546 1546 1546 1546 1547 1547 1548 1548 1548 1548 1549 1549 1548 1548 1548 1548 1548 1548 1547
1553 1554 1555 1556 1556 1556 1557 1557 1556 1556 1556 1555 1554 1554 1553 1552 1552 1551 1550 1549 1548 1547 1547 1547 1547 1547 1547 1548 1548 1549 1549 1549 1549 1550 1550 1550 1550 1549 1549 1550 1549 1549 1549
1553 1554 1555 1556 1557 1557 1557 1557 1557 1557 1557 1556 1556 1555 1554 1553 1553 1552 1551 1550 1549 1549 1548 1548 1548 1548 1548 1549 1549 1550 1550 1551 1551 1551 1551 1551 1551 1551 1551 1551 1551 1551 1550
1553 1554 1555 1556 1557 1558 1558 1558 1558 1558 1558 1557 1557 1556 1555 1554 1554 1553 1552 1552 1551 1550 1549 1549 1549 1549 1550 1550 1551 1551 1552 1552 1552 1552 1552 1553 1553 1552 1552 1552 1552 1552 1551
1553 1554 1555 1556 1557 1558 1558 1559 1559 1559 1559 1559 1558 1557 1556 1556 1555 1554 1553 1553 1552 1551 1551 1551 1551 1551 1551 1551 1552 1553 1553 1554 1554 1554 1554 1554 1554 1554 1554 1554 1553 1553 1553
1552 1554 1555 1557 1558 1559 1559 1559 1560 1560 1560 1560 1559 1559 1558 1557 1557 1556 1555 1554 1553 1553 1552 1552 1552 1552 1552 1552 1553 1553 1554 1556 1555 1555 1556 1556 1556 1556 1555 1555 1555 1555 1554
1551 1553 1555 1557 1558 1559 1559 1560 1560 1561 1561 1561 1560 1560 1559 1559 1558 1557 1557 1556 1555 1555 1554 1554 1554 1553 1553 1553 1554 1554 1555 1555 1556 1557 1557 1557 1557 1557 1557 1557 1556 1556 1556
1551 1553 1555 1556 1558 1559 1560 1560 1561 1561 1561 1562 1562 1561 1561 1560 1560 1559 1558 1558 1557 1556 1556 1555 1555 1555 1555 1554 1555 1555 1556 1556 1556 1558 1559 1559 1559 1558 1558 1558 1558 1557 1557
1550 1552 1554 1556 1558 1559 1560 1561 1561 1562 1562 1562 1563 1562 1562 1562 1561 1561 1560 1560 1559 1558 1558 1557 1557 1556 1556 1556 1556 1556 1556 1557 1557 1557 1559 1560 1560 1560 1560 1559 1559 1559 1558
1549 1551 1554 1556 1557 1559 1560 1561 1562 1562 1562 1563 1563 1563 1563 1563 1563 1562 1562 1562 1561 1560 1560 1559 1559 1558 1558 1557 1557 1557 1557 1557 1558 1558 1559 1560 1560 1561 1561 1561 1560 1560 1559